Location: 22
(39.7117°N, 89.5929°W)
Time: 08:11:14
(UTC-05:00)

Transit 2A - Pass Details

Date: 03 August 2024
Orbit: 590 x 961 km, 66.7° (Epoch: 13 September)

Event Time Altitude Azimuth Distance (km) Brightness Sun altitude
Rises 16:30:44 0° 312° (NW) 3,650 9.9 40.2°
Reaches altitude 10° 16:34:30 10° 291° (WNW) 2,687 9.7 39.5°
Maximum altitude 16:37:50 15° 259° (WSW) 2,314 10.0 38.9°
Drops below altitude 10° 16:41:07 10° 226° (SW) 2,615 9.6 38.3°
Sets 16:44:43 0° 204° (SSW) 3,493 9.8 37.6°
